Location: Proctor
(47.8934°N, 114.3048°W)
Time: 20:29:23
(UTC+00:00)

Tiros 1 despin weight - Pass Details

Date: 26 June 2024
Orbit: 576 x 620 km, 48.2° (Epoch: 19 July)

Event Time Altitude Azimuth Distance (km) Brightness Sun altitude
Rises 19:59:49 0° 258° (WSW) 2,885 ? 65.1°
Reaches altitude 10° 20:02:07 10° 258° (WSW) 1,984 ? 65.0°
Maximum altitude 20:06:42 87° 171° (S) 627 ? 64.9°
Drops below altitude 10° 20:11:18 10° 82° (E) 1,988 ? 64.7°
Sets 20:13:36 0° 82° (E) 2,892 ? 64.5°
